Погода в Залучье

Россия / Тверская область     57°12′01″N   33°08′44″E
темп.,
°C
ветер,
м/с
пор.,
м/с
влажн.,
%
обл.,
%
осадки,
мм/ч
давл.,
гПа
погр.,
м
23 октября, сб
сб2300:00+5юз71575100 0.1 9961548
03:00+5юз71587100 0.1 9961256
06:00+5юз51191100 0.1 9961129
09:00+4юз51093100 0.4 997973
12:00+6зюз597565 0.6 10001059
15:00+6зюз597335 0.8 10011116
18:00+5зюз488572 0.4 1003840
21:00+3з489497 1.0 1005797
24 октября, вс
вс2400:00+2з4896100 0.3 1007552
03:00+2зсз51096100 0.6 1009728
06:00+1сз51296100 0.5 1012783
09:00+1сз51194100 0.9 10151004
12:00+2сз5107783 0.4 10181235
15:00+2ссз597595 0.8 10201124
18:00+1сз487497 0.1 10241168
21:00−1сз39865 0.1 1026448
25 октября, пн
пн2500:00−2зсз25925 0.0 1027180
03:00−2з1389100 0.0 1028112
06:00−2юз2584100 0.0 1028182
09:000ююз3977100 0.0 1027376
12:00+2ююз51269100 0.0 1026588
15:00+3юз51376100 0.0 1024618
18:00+2юз5138397 0.0 1023592
21:00+2юз413865 0.0 1023501
26 октября, вт
вт2600:00+1юз41386100 0.0 1023420
03:00+1юз41387100 0.0 1022398
06:00+1юз41386100 0.0 1020416
09:00+1юз4148299 0.0 1019474
12:00+4юз51272100 0.0 1018587
15:00+5юз41173100 0.0 1017643
18:00+3юз41282100 0.0 1018464
21:00+3юз41285100 0.0 1017418
27 октября, ср
ср2700:00+2юз41187100 0.0 1016347
03:00+2юз41188100 0.0 1014360
06:00+2юз41094100 1.8 1013381
09:00+3юз31196100 3.4 1013446
12:00+4юз3997100 0.1 1013388
15:00+6зюз3992100 0.1 1013516
18:00+5з399397 0.1 1013515
21:00+6з4118910 0.2 1014554